| time (UTC) | temp F | wind direction | speed knots | gust knots | rain 1hr in | rain 24hr in | rain mn in | humidity % | barometer mb |
| 20260509124005 | 60 | 250 | 12.2 | 17.4 | 0.00 | 0.00 | 0.00 | 42 | 1013.2 |
| 20260509123508 | 60 | 242 | 11.3 | 16.5 | 0.00 | 0.00 | 0.00 | 41 | 1013.1 |
| 20260509121520 | 61 | 242 | 12.2 | 17.4 | 0.00 | 0.00 | 0.00 | 35 | 1013.2 |
| 20260509115532 | 62 | 237 | 11.3 | 17.4 | 0.00 | 0.00 | 0.00 | 26 | 1013.1 |
| 20260509115035 | 63 | 242 | 13.0 | 18.2 | 0.00 | 0.00 | 0.00 | 24 | 1013.1 |
| 20260509114538 | 63 | 245 | 12.2 | 18.2 | 0.00 | 0.00 | 0.00 | 23 | 1013.1 |
| 20260509113047 | 62 | 243 | 11.3 | 15.6 | 0.00 | 0.00 | 0.00 | 24 | 1013.1 |
| 20260509112550 | 62 | 246 | 10.4 | 15.6 | 0.00 | 0.00 | 0.00 | 23 | 1013.2 |
| 20260509112053 | 62 | 243 | 10.4 | 15.6 | 0.00 | 0.00 | 0.00 | 23 | 1013.2 |
| 20260509110602 | 62 | 246 | 11.3 | 18.2 | 0.00 | 0.00 | 0.00 | 26 | 1013.2 |
| 20260509105608 | 61 | 245 | 12.2 | 16.5 | 0.00 | 0.00 | 0.00 | 29 | 1013.1 |
| 20260509105111 | 61 | 243 | 11.3 | 18.2 | 0.00 | 0.00 | 0.00 | 31 | 1013.2 |
| 20260509104117 | 61 | 243 | 11.3 | 17.4 | 0.00 | 0.00 | 0.00 | 34 | 1013.1 |
| 20260509103620 | 61 | 241 | 12.2 | 18.2 | 0.00 | 0.00 | 0.00 | 34 | 1013.2 |
| 20260509103123 | 61 | 240 | 13.0 | 18.2 | 0.00 | 0.00 | 0.00 | 36 | 1013.2 |
| 20260509102626 | 61 | 243 | 13.0 | 18.2 | 0.00 | 0.00 | 0.00 | 38 | 1013.2 |
| 20260509101632 | 60 | 241 | 13.0 | 18.2 | 0.00 | 0.00 | 0.00 | 42 | 1013.3 |
| 20260509095644 | 61 | 246 | 13.0 | 18.2 | 0.00 | 0.00 | 0.00 | 43 | 1013.3 |
| 20260509090217 | 60 | 243 | 13.9 | 19.1 | 0.00 | 0.00 | 0.00 | 49 | 1013.6 |
| 20260509085720 | 60 | 243 | 13.0 | 19.1 | 0.00 | 0.00 | 0.00 | 50 | 1013.6 |
| 20260509084229 | 60 | 251 | 13.9 | 20.0 | 0.00 | 0.00 | 0.00 | 49 | 1013.8 |
| 20260509081247 | 60 | 253 | 13.9 | 19.1 | 0.00 | 0.00 | 0.00 | 48 | 1013.9 |
| 20260509080253 | 60 | 252 | 13.9 | 19.1 | 0.00 | 0.00 | 0.00 | 46 | 1013.8 |
| 20260509075756 | 61 | 245 | 13.9 | 19.1 | 0.00 | 0.00 | 0.00 | 43 | 1013.9 |
| 20260509074802 | 62 | 242 | 17.4 | 20.9 | 0.00 | 0.00 | 0.00 | 39 | 1014.0 |
| 20260509074305 | 61 | 242 | 16.5 | 20.9 | 0.00 | 0.00 | 0.00 | 38 | 1014.1 |
| 20260509073808 | 62 | 237 | 13.0 | 20.9 | 0.00 | 0.00 | 0.00 | 41 | 1014.1 |
| 20260509072814 | 62 | 240 | 15.6 | 20.9 | 0.00 | 0.00 | 0.00 | 39 | 1014.1 |
| 20260509071820 | 63 | 238 | 13.9 | 19.1 | 0.00 | 0.00 | 0.00 | 32 | 1014.2 |
| 20260509071325 | 63 | 242 | 13.9 | 20.0 | 0.00 | 0.00 | 0.00 | 30 | 1014.2 |
| 20260509065336 | 63 | 241 | 13.9 | 19.1 | 0.00 | 0.00 | 0.00 | 31 | 1014.2 |
| 20260509064838 | 63 | 242 | 13.0 | 19.1 | 0.00 | 0.00 | 0.00 | 29 | 1014.3 |
| 20260509062353 | 63 | 244 | 13.9 | 19.1 | 0.00 | 0.00 | 0.00 | 31 | 1014.4 |
| 20260509061359 | 63 | 251 | 13.0 | 18.2 | 0.00 | 0.00 | 0.00 | 31 | 1014.5 |
| 20260509055908 | 64 | 257 | 12.2 | 17.4 | 0.00 | 0.00 | 0.00 | 28 | 1014.6 |
| 20260509054417 | 64 | 254 | 12.2 | 18.2 | 0.00 | 0.00 | 0.00 | 27 | 1014.7 |
| 20260509053423 | 64 | 254 | 13.0 | 17.4 | 0.00 | 0.00 | 0.00 | 27 | 1014.8 |
| 20260509052430 | 64 | 254 | 12.2 | 17.4 | 0.00 | 0.00 | 0.00 | 26 | 1014.9 |
| 20260509051435 | 65 | 255 | 13.0 | 19.1 | 0.00 | 0.00 | 0.00 | 26 | 1014.9 |
| 20260509045447 | 64 | 252 | 12.2 | 18.2 | 0.00 | 0.00 | 0.00 | 26 | 1014.9 |
| 20260509044453 | 64 | 257 | 12.2 | 19.1 | 0.00 | 0.00 | 0.00 | 27 | 1014.9 |
| 20260509043459 | 64 | 258 | 13.9 | 18.2 | 0.00 | 0.00 | 0.00 | 29 | 1014.9 |
| 20260509043002 | 64 | 261 | 12.2 | 18.2 | 0.00 | 0.00 | 0.00 | 30 | 1014.9 |
| 20260509042008 | 64 | 258 | 12.2 | 17.4 | 0.00 | 0.00 | 0.00 | 31 | 1014.7 |
| 20260509041014 | 64 | 258 | 11.3 | 18.2 | 0.00 | 0.00 | 0.00 | 33 | 1014.6 |
| 20260509040517 | 63 | 261 | 11.3 | 18.2 | 0.00 | 0.00 | 0.00 | 34 | 1014.5 |
| 20260509040020 | 63 | 261 | 11.3 | 17.4 | 0.00 | 0.00 | 0.00 | 37 | 1014.5 |
| 20260509035523 | 63 | 261 | 11.3 | 17.4 | 0.00 | 0.00 | 0.00 | 39 | 1014.5 |
| 20260509033038 | 63 | 261 | 11.3 | 18.2 | 0.00 | 0.00 | 0.00 | 45 | 1014.1 |
| 20260509032541 | 63 | 259 | 12.2 | 18.2 | 0.00 | 0.00 | 0.00 | 46 | 1014.2 |
| 20260509032044 | 63 | 262 | 11.3 | 17.4 | 0.00 | 0.00 | 0.00 | 47 | 1014.2 |
| 20260509031547 | 63 | 260 | 13.0 | 17.4 | 0.00 | 0.00 | 0.00 | 48 | 1014.0 |
| 20260509025102 | 64 | 263 | 11.3 | 18.2 | 0.00 | 0.00 | 0.00 | 49 | 1014.7 |
| 20260509024108 | 64 | 261 | 12.2 | 17.4 | 0.00 | 0.00 | 0.00 | 49 | 1014.7 |
| 20260509023611 | 64 | 262 | 12.2 | 17.4 | 0.00 | 0.00 | 0.00 | 50 | 1014.7 |
| 20260509022617 | 65 | 260 | 12.2 | 17.4 | 0.00 | 0.00 | 0.00 | 50 | 1014.6 |
| 20260509020629 | 67 | 260 | 10.4 | 16.5 | 0.00 | 0.00 | 0.00 | 51 | 1014.7 |
| 20260509014144 | 69 | 269 | 13.0 | 20.0 | 0.00 | 0.00 | 0.00 | 48 | 1014.7 |
| 20260509013150 | 69 | 263 | 13.9 | 20.0 | 0.00 | 0.00 | 0.00 | 46 | 1014.7 |
| 20260509012156 | 70 | 262 | 11.3 | 18.2 | 0.00 | 0.00 | 0.00 | 43 | 1014.8 |
| 20260509011659 | 71 | 269 | 13.0 | 18.2 | 0.00 | 0.00 | 0.00 | 41 | 1014.7 |
| 20260509011202 | 71 | 269 | 9.6 | 19.1 | 0.00 | 0.00 | 0.00 | 42 | 1014.7 |
| 20260509010705 | 71 | 268 | 13.0 | 20.0 | 0.00 | 0.00 | 0.00 | 40 | 1014.7 |
| 20260509005711 | 71 | 280 | 13.0 | 24.3 | 0.00 | 0.00 | 0.00 | 38 | 1014.7 |
| 20260509004220 | 72 | 268 | 16.5 | 23.5 | 0.00 | 0.00 | 0.00 | 35 | 1013.9 |
| 20260509003723 | 72 | 283 | 14.8 | 23.5 | 0.00 | 0.00 | 0.00 | 33 | 1014.1 |
| 20260509000741 | 74 | 283 | 16.5 | 22.6 | 0.00 | 0.00 | 0.00 | 24 | 1015.1 |
| 20260509000244 | 74 | 290 | 11.3 | 22.6 | 0.00 | 0.00 | 0.00 | 26 | 1015.2 |
| 20260508235747 | 74 | 281 | 13.9 | 24.3 | 0.00 | 0.00 | 0.00 | 27 | 1015.2 |
| 20260508234256 | 75 | 273 | 12.2 | 20.9 | 0.00 | 0.00 | 0.00 | 29 | 1014.3 |
| 20260508231811 | 75 | 260 | 11.3 | 20.9 | 0.00 | 0.00 | 0.00 | 32 | 1015.4 |
| 20260508230320 | 75 | 277 | 12.2 | 20.9 | 0.00 | 0.00 | 0.00 | 35 | 1015.3 |
| 20260508225823 | 75 | 269 | 10.4 | 22.6 | 0.00 | 0.00 | 0.00 | 36 | 1015.4 |
| 20260508223338 | 75 | 253 | 15.6 | 23.5 | 0.00 | 0.00 | 0.00 | 37 | 1015.7 |
| 20260508215859 | 76 | 269 | 12.2 | 20.9 | 0.00 | 0.00 | 0.00 | 37 | 1015.9 |
| 20260508212917 | 76 | 273 | 13.9 | 20.9 | 0.00 | 0.00 | 0.00 | 37 | 1016.2 |
| 20260508212420 | 76 | 276 | 11.3 | 0.0 | 0.00 | 0.00 | 0.00 | 36 | 1016.2 |
| 20260508210432 | 75 | 285 | 13.9 | 21.7 | 0.00 | 0.00 | 0.00 | 39 | 1016.4 |
| 20260508202953 | 75 | 291 | 14.8 | 22.6 | 0.00 | 0.00 | 0.00 | 37 | 1016.2 |
| 20260508202456 | 75 | 284 | 11.3 | 21.7 | 0.00 | 0.00 | 0.00 | 40 | 1016.4 |
| 20260508201005 | 75 | 287 | 11.3 | 20.9 | 0.00 | 0.00 | 0.00 | 40 | 1016.5 |
| 20260508194520 | 74 | 283 | 10.4 | 22.6 | 0.00 | 0.00 | 0.00 | 43 | 1016.5 |
| 20260508194023 | 74 | 288 | 10.4 | 22.6 | 0.00 | 0.00 | 0.00 | 42 | 1016.5 |
| 20260508191538 | 75 | 281 | 13.0 | 19.1 | 0.00 | 0.00 | 0.00 | 39 | 1016.8 |
| 20260508185550 | 74 | 283 | 13.9 | 20.0 | 0.00 | 0.00 | 0.00 | 39 | 1016.7 |
| 20260508183602 | 75 | 273 | 9.6 | 21.7 | 0.00 | 0.00 | 0.00 | 40 | 1016.8 |
| 20260508183105 | 75 | 281 | 9.6 | 17.4 | 0.00 | 0.00 | 0.00 | 41 | 1016.8 |
| 20260508182111 | 74 | 292 | 7.8 | 18.2 | 0.00 | 0.00 | 0.00 | 40 | 1016.8 |
| 20260508181614 | 74 | 277 | 10.4 | 19.1 | 0.00 | 0.00 | 0.00 | 39 | 1016.8 |
| 20260508172148 | 73 | 280 | 12.2 | 17.4 | 0.00 | 0.00 | 0.00 | 39 | 1016.7 |
| 20260508170656 | 73 | 275 | 11.3 | 18.2 | 0.00 | 0.00 | 0.00 | 37 | 1016.6 |
| 20260508165702 | 72 | 282 | 7.8 | 20.0 | 0.00 | 0.00 | 0.00 | 38 | 1016.7 |
| 20260508165205 | 72 | 281 | 8.7 | 15.6 | 0.00 | 0.00 | 0.00 | 40 | 1016.6 |
| 20260508163714 | 72 | 262 | 8.7 | 14.8 | 0.00 | 0.00 | 0.00 | 42 | 1016.6 |
| 20260508163217 | 72 | 257 | 8.7 | 13.9 | 0.00 | 0.00 | 0.00 | 42 | 1016.7 |
| 20260508160732 | 71 | 266 | 7.8 | 13.0 | 0.00 | 0.00 | 0.00 | 40 | 1016.6 |
| 20260508160235 | 70 | 281 | 8.7 | 11.3 | 0.00 | 0.00 | 0.00 | 40 | 1016.7 |
| 20260508155241 | 70 | 274 | 7.8 | 13.0 | 0.00 | 0.00 | 0.00 | 41 | 1016.6 |
| 20260508154744 | 70 | 266 | 7.0 | 12.2 | 0.00 | 0.00 | 0.00 | 42 | 1016.7 |
| 20260508150311 | 68 | 265 | 7.0 | 13.9 | 0.00 | 0.00 | 0.00 | 37 | 1016.5 |
| 20260508145814 | 68 | 269 | 7.0 | 13.9 | 0.00 | 0.00 | 0.00 | 37 | 1016.4 |
| 20260508142832 | 67 | 288 | 5.2 | 13.0 | 0.00 | 0.00 | 0.00 | 40 | 1016.3 |
| 20260508135850 | 64 | 272 | 7.0 | 13.0 | 0.00 | 0.00 | 0.00 | 45 | 1015.3 |
| 20260508135353 | 64 | 284 | 7.8 | 11.3 | 0.00 | 0.00 | 0.00 | 45 | 1015.4 |
| 20260508134856 | 64 | 272 | 7.8 | 13.9 | 0.00 | 0.00 | 0.00 | 44 | 1015.2 |
| 20260508134400 | 64 | 273 | 7.8 | 13.9 | 0.00 | 0.00 | 0.00 | 45 | 1015.1 |
| 20260508133902 | 64 | 272 | 8.7 | 13.9 | 0.00 | 0.00 | 0.00 | 46 | 1015.1 |
| 20260508133405 | 64 | 281 | 7.8 | 13.9 | 0.00 | 0.00 | 0.00 | 47 | 1015.1 |
| 20260508131417 | 62 | 275 | 9.6 | 13.9 | 0.00 | 0.00 | 0.00 | 49 | 1015.0 |
| 20260508130920 | 62 | 271 | 8.7 | 14.8 | 0.00 | 0.00 | 0.00 | 50 | 1015.0 |
| 20260508130423 | 62 | 271 | 7.8 | 17.4 | 0.00 | 0.00 | 0.00 | 50 | 1014.9 |
| 20260508125926 | 62 | 269 | 8.7 | 17.4 | 0.00 | 0.00 | 0.00 | 50 | 1014.8 |
| 20260508124932 | 61 | 272 | 8.7 | 14.8 | 0.00 | 0.00 | 0.00 | 53 | 1014.8 |